Theta_e
337 337 335 336 337 340 341 342 341 340 339 337 336 336 336 336 336 337 337 338 337 337 339 341 341 340 341 340 338 337 337 337 340 340 340 341 342 341 343 344 343 335 326 325 328 330 333 335 335 334 333 331 331 332 333 333 334 333 333 333 334 334 334 334 333 333 332 332 332 331 331 331 330 331 330 331 331 331 331 332 332 332 332 332 332
335 335 335 335 337 339 341 341 342 342 339 337 337 336 336 337 337 337 339 340 339 338 339 340 341 341 341 341 341 339 338 338 339 341 339 339 341 340 340 343 344 340 330 325 326 328 331 334 336 335 335 334 333 332 333 334 334 334 334 334 334 335 335 335 334 333 332 332 331 331 330 329 329 328 329 329 330 330 329 329 329 329 329 330 330
333 333 332 332 334 337 339 340 341 340 339 338 338 338 337 338 338 339 340 341 341 341 340 340 341 341 342 341 342 341 340 339 339 340 340 338 339 340 339 342 345 341 332 327 327 328 330 333 334 334 335 335 334 334 334 334 334 334 334 334 335 335 335 335 334 333 333 333 331 331 330 330 329 328 329 329 329 329 329 328 328 328 329 329 330
333 332 331 330 330 335 338 339 340 339 339 339 339 340 339 339 340 340 340 342 342 341 341 341 341 341 341 341 342 342 341 340 340 339 340 339 338 341 342 342 343 340 333 331 331 331 331 332 333 333 333 334 334 334 333 333 334 334 333 333 333 335 335 333 332 332 332 332 331 330 330 330 329 329 329 329 329 329 329 329 329 329 330 331 332
335 333 332 330 327 330 336 337 339 340 341 341 342 341 340 339 340 341 340 341 341 341 341 340 340 340 341 342 341 342 342 341 341 340 338 339 339 340 341 341 342 340 337 336 337 337 335 334 334 334 334 334 333 333 333 333 334 333 333 332 331 332 333 332 331 331 331 331 330 330 330 329 329 330 330 330 330 330 330 330 330 332 332 333 334
337 335 333 330 326 327 332 334 337 340 343 344 343 342 341 339 340 340 341 341 340 341 341 340 340 340 341 342 342 342 343 341 342 341 339 339 339 338 338 339 341 340 340 339 340 341 339 337 337 337 337 336 334 334 333 333 333 333 332 331 330 329 328 328 328 328 329 329 330 330 330 329 330 332 333 332 332 332 332 332 333 333 334 335 335
339 338 334 331 327 326 328 330 334 340 343 344 344 342 342 341 340 340 341 341 341 340 341 340 340 339 340 342 342 342 342 342 342 341 340 339 338 336 337 338 339 340 340 340 340 340 340 339 339 339 339 339 338 337 336 334 333 332 333 332 331 330 328 325 325 325 325 326 328 329 329 329 331 332 334 334 334 334 333 333 333 335 336 336 337
338 338 337 335 332 330 329 329 333 340 343 344 343 343 342 342 341 341 341 341 341 339 338 338 337 337 339 342 343 342 342 341 342 341 341 341 338 336 336 338 339 339 340 340 340 339 340 340 340 340 341 341 341 341 340 337 334 332 332 333 332 331 331 330 329 329 328 327 326 328 329 330 331 333 333 334 334 334 334 334 335 336 337 337 338
337 337 337 337 337 336 334 332 333 338 341 342 342 343 342 341 340 341 342 342 342 341 337 335 335 335 336 338 340 342 343 342 342 341 341 340 339 337 337 338 338 338 339 339 340 339 340 341 340 340 340 340 341 342 341 340 338 335 334 334 334 333 333 333 333 333 333 332 330 329 329 330 331 332 333 333 333 333 334 335 336 337 337 337 337
337 337 336 337 338 338 338 337 335 335 338 339 340 341 342 341 340 340 342 343 343 343 341 337 335 334 334 335 336 340 342 343 342 342 341 340 340 339 339 340 338 336 336 337 338 339 340 342 342 341 340 341 342 343 341 340 339 338 336 336 336 336 335 334 334 334 334 334 334 332 331 331 331 332 333 333 333 334 335 336 337 337 337 337 337
338 338 337 337 338 339 340 339 337 336 336 337 338 339 340 340 340 339 341 343 343 344 343 341 338 335 334 334 334 338 342 343 343 342 342 342 340 341 342 342 340 337 335 336 337 339 340 342 344 343 342 342 343 343 341 339 338 338 338 337 337 337 337 336 335 335 334 335 335 334 333 333 333 334 335 335 335 336 336 337 337 337 337 337 338
342 342 340 339 340 341 341 340 339 338 339 339 340 340 339 339 339 337 339 342 343 343 342 342 340 337 335 334 334 336 340 343 343 342 342 343 342 341 341 341 340 338 336 336 337 339 340 341 342 341 340 340 341 341 339 339 338 338 337 337 336 336 336 336 336 335 335 335 335 335 335 335 336 336 337 337 337 337 337 337 337 337 338 339 340
340 340 342 341 341 342 341 341 340 339 341 342 341 342 341 342 341 338 337 339 341 341 342 342 341 339 336 335 335 335 338 341 343 343 342 342 341 340 339 339 340 339 337 337 338 339 340 340 340 339 338 338 338 337 337 337 338 338 337 336 336 336 336 335 335 335 335 335 334 335 335 336 337 337 338 338 338 338 337 337 337 337 338 339 340
337 336 339 341 341 342 342 341 340 340 341 342 342 342 343 344 342 337 336 337 339 340 341 342 342 341 338 336 337 336 337 338 340 342 342 342 341 339 338 337 338 339 338 337 338 340 341 341 341 340 339 338 338 338 337 336 337 338 337 337 336 337 336 336 335 335 335 335 335 335 335 335 335 336 336 336 336 337 337 337 337 337 338 339 340
340 339 339 337 337 339 342 342 342 342 342 341 341 342 342 343 341 337 337 338 338 339 341 342 343 342 339 337 338 338 337 337 337 338 339 340 341 340 339 337 337 338 338 338 339 340 342 343 343 342 341 341 340 339 338 337 337 338 338 337 336 336 336 336 335 335 335 335 335 336 336 336 336 335 335 335 335 336 336 337 337 337 338 340 340
344 342 339 338 336 336 341 343 342 343 342 341 342 342 341 341 339 338 338 338 337 338 341 343 343 343 340 337 338 339 339 338 337 336 335 337 338 338 338 336 336 337 338 339 339 339 341 343 343 344 344 344 344 342 341 339 338 338 339 338 338 337 336 336 335 335 334 334 335 335 336 336 336 336 335 335 335 336 337 338 338 338 339 340 341
344 342 340 340 339 338 341 343 343 343 342 342 342 340 340 338 337 337 338 338 338 338 340 343 343 343 340 338 339 340 339 337 336 335 333 333 334 333 333 333 334 335 337 339 339 339 340 341 343 344 345 346 346 345 343 341 340 339 339 339 339 338 338 336 335 335 335 335 335 335 335 336 337 337 337 336 337 337 338 339 339 338 338 339 340
342 342 340 340 340 340 343 344 343 342 342 341 339 338 338 336 335 336 337 338 340 341 341 342 344 343 341 339 339 340 339 338 337 335 333 333 333 333 332 332 333 335 336 338 339 339 340 340 342 344 345 345 346 346 344 342 340 340 339 339 339 340 339 338 337 336 336 336 336 337 337 337 338 338 338 338 338 338 339 339 339 339 339 339 340
341 341 340 340 342 341 342 342 339 337 337 338 337 337 336 335 335 337 338 339 341 342 342 344 345 344 343 341 339 339 339 339 339 338 337 336 335 336 336 335 336 336 336 337 338 338 339 340 341 343 344 345 346 346 344 342 341 340 340 339 339 339 339 338 338 339 339 339 338 338 338 339 339 339 339 339 339 339 339 340 340 339 339 339 339
340 339 339 340 341 339 337 337 334 331 331 333 335 334 332 334 336 338 340 341 342 342 343 345 346 345 344 342 340 339 338 338 339 339 338 337 336 336 338 339 339 338 338 337 337 337 338 339 341 343 344 344 345 345 344 344 342 342 342 341 341 341 340 339 338 340 341 342 341 340 340 340 340 339 339 339 339 339 340 340 341 340 340 340 339
339 338 339 340 338 336 335 335 334 332 330 330 330 330 329 332 334 336 339 341 341 342 344 346 346 344 344 344 342 340 338 337 337 339 340 340 338 336 337 340 341 341 340 339 338 338 339 340 343 344 345 344 344 344 345 345 345 344 343 342 342 342 342 341 339 339 341 343 344 342 342 341 341 341 341 340 340 340 340 341 342 342 341 341 340
338 338 338 338 335 334 334 334 334 332 331 330 328 329 328 329 331 332 335 338 341 342 344 346 346 344 344 343 342 340 338 337 336 337 340 340 338 337 337 340 343 343 341 341 341 340 341 343 344 344 345 344 344 345 345 346 345 345 344 343 343 342 341 342 341 340 340 341 343 344 343 342 341 341 342 343 342 341 341 342 343 343 343 341 340
339 338 336 334 333 332 331 331 331 330 330 330 329 330 330 329 328 329 331 334 339 342 344 344 345 345 344 342 342 341 340 338 335 335 336 337 337 338 338 339 342 343 341 342 341 341 341 342 342 342 342 342 342 343 344 345 345 345 345 345 345 344 344 343 343 342 341 341 342 344 345 343 342 342 342 342 343 342 340 341 342 344 344 342 340
338 338 336 334 333 333 333 332 332 332 330 330 329 329 329 330 331 330 330 331 335 340 343 343 343 343 343 342 343 343 342 341 338 334 333 334 336 338 339 339 340 340 340 340 341 340 340 341 341 341 342 341 341 342 343 343 344 344 344 345 345 345 345 345 344 344 344 342 342 343 344 344 345 344 343 342 342 342 341 341 342 343 343 342 340
337 336 334 332 332 332 332 332 332 329 328 328 330 332 333 334 334 334 333 334 335 337 340 341 341 342 342 342 343 344 342 342 341 338 335 336 338 340 341 340 339 340 341 341 340 340 341 341 342 342 342 341 341 341 341 341 341 342 343 343 343 343 344 344 345 345 345 345 344 343 345 347 347 345 343 341 341 342 341 341 342 342 343 342 340
335 333 332 331 331 331 331 333 333 332 331 332 333 335 337 338 340 339 338 337 336 336 337 338 340 342 342 341 342 343 342 342 342 339 336 338 341 341 343 343 342 341 342 342 341 342 342 341 342 341 340 341 341 341 341 341 342 341 341 341 341 342 342 342 344 345 345 346 346 346 347 348 347 345 343 343 342 343 342 342 342 343 343 343 340
333 332 333 333 331 331 332 334 334 334 336 338 337 335 336 338 340 341 338 337 336 337 337 338 340 341 342 341 340 340 341 340 341 340 337 337 339 341 343 344 344 343 344 343 343 343 341 341 341 340 340 340 341 341 341 341 341 341 341 341 341 341 341 342 344 345 345 347 348 348 348 348 346 345 345 346 346 346 345 344 343 344 344 344 344
333 333 334 334 334 333 335 335 334 334 336 338 338 336 335 336 337 337 336 335 336 339 339 339 340 340 339 339 338 338 338 338 339 340 340 337 337 340 342 345 345 345 345 345 344 343 341 340 340 339 339 340 341 341 341 340 340 342 343 342 342 341 341 342 344 346 346 347 348 349 348 348 347 347 347 347 347 347 347 346 346 345 345 345 345
334 334 334 335 335 335 335 335 335 334 334 335 335 334 333 333 333 333 333 332 334 338 339 340 339 339 339 337 336 336 337 337 338 339 340 339 337 339 341 343 346 347 347 346 345 342 339 338 338 339 339 340 341 339 339 339 340 342 344 345 345 345 344 343 343 345 347 347 348 348 348 348 347 348 348 347 347 346 347 346 344 345 345 345 345
332 333 333 334 335 335 334 334 334 333 333 333 333 332 332 332 332 331 330 330 331 333 335 337 338 338 338 338 336 336 337 339 338 338 341 340 337 338 340 341 344 346 347 347 346 342 337 337 336 339 339 338 338 338 338 339 341 343 344 345 346 346 346 346 345 345 346 346 347 347 346 346 347 347 347 347 347 346 345 344 344 344 344 344 344
330 331 331 332 333 334 334 335 334 333 332 331 331 330 330 331 331 332 331 329 329 330 332 335 338 338 337 337 336 337 337 338 337 338 341 341 338 337 337 338 339 343 345 346 348 344 339 338 337 338 340 338 337 339 339 340 340 341 342 342 343 344 345 346 346 346 346 346 346 346 346 346 347 347 346 346 347 346 345 345 345 345 345 343 342
329 330 330 330 331 332 334 334 334 333 331 331 330 328 328 330 331 333 333 331 333 335 335 337 339 337 336 336 335 336 337 338 337 338 341 341 339 337 336 336 336 339 344 347 348 345 341 339 338 339 340 340 339 339 339 339 338 338 339 338 339 341 343 344 345 345 346 346 346 346 347 347 348 347 346 345 346 345 345 345 345 346 346 343 342
331 331 332 332 332 332 333 333 333 332 331 331 330 329 328 330 331 333 333 333 334 335 337 340 340 336 334 334 334 333 336 336 335 337 340 340 339 337 337 337 336 337 344 347 346 344 342 340 339 339 340 341 341 339 338 338 338 338 338 337 338 341 343 344 344 344 345 346 347 347 347 347 347 346 346 346 346 346 344 344 345 345 345 344 343
332 333 332 332 332 332 333 333 333 333 332 332 333 332 329 329 331 333 333 334 335 335 336 340 341 337 335 335 334 332 332 332 332 334 337 337 337 337 337 339 337 337 340 344 344 344 343 341 341 340 340 341 341 339 338 338 339 340 340 339 340 341 343 344 344 344 344 345 346 345 346 346 346 347 346 346 347 346 345 344 344 345 346 345 344
332 332 331 330 331 332 332 333 333 333 333 333 333 333 332 332 333 335 335 336 337 337 336 337 339 338 337 337 336 334 332 331 331 334 336 336 336 337 338 339 339 337 340 344 345 344 342 341 341 341 341 340 340 340 340 339 340 342 341 339 339 340 343 343 343 344 344 344 344 345 345 346 346 346 346 347 347 347 346 344 344 346 347 346 344
331 330 329 330 331 332 332 333 334 333 333 333 332 333 334 334 335 335 336 336 336 336 334 334 336 336 336 336 335 335 335 334 334 336 337 337 337 339 340 340 339 339 340 344 346 344 342 342 342 341 340 341 342 342 342 341 341 341 341 339 337 339 342 343 343 343 344 344 344 345 346 347 347 346 346 346 347 347 346 345 344 346 346 345 343
328 329 329 329 330 330 331 333 335 335 334 334 333 333 334 335 335 334 334 334 333 333 332 333 333 334 334 335 334 334 335 336 337 338 339 338 339 341 341 340 341 340 340 343 344 342 341 341 342 341 340 341 342 343 344 344 343 341 339 338 337 338 341 343 343 343 344 344 344 344 346 347 347 347 347 346 346 346 345 345 344 345 344 342 341
328 328 328 328 328 328 329 331 333 335 336 335 334 334 334 333 333 333 333 332 331 331 331 332 333 334 334 335 336 335 334 335 336 339 341 341 341 341 341 341 341 341 342 342 342 340 340 341 343 341 338 339 343 344 344 344 343 341 339 338 338 340 342 342 342 342 342 343 344 344 345 345 346 346 347 346 345 345 344 344 344 342 340 338 337
328 328 328 327 326 327 329 329 331 333 335 335 334 334 333 333 333 333 333 333 332 332 332 332 333 334 334 335 337 337 336 335 335 336 339 342 343 342 342 342 341 341 342 341 340 340 342 342 342 340 338 340 342 343 341 341 341 340 340 339 338 338 340 342 343 342 342 342 344 344 344 345 345 345 347 346 344 343 343 343 341 339 336 335 334
326 327 328 326 325 327 329 330 331 331 332 334 335 335 335 334 334 333 333 333 334 335 334 334 333 334 335 336 337 338 337 336 335 336 337 340 343 343 343 343 342 342 342 340 340 342 342 342 342 340 340 341 342 340 339 339 339 340 339 339 338 338 340 341 342 342 342 342 344 344 344 344 345 345 346 347 345 343 342 341 339 337 336 335 333
325 326 327 325 325 327 329 330 330 330 330 334 337 337 337 336 334 333 332 333 335 337 337 337 336 335 336 337 338 339 338 337 336 337 336 338 342 343 343 342 343 343 341 338 340 342 342 342 343 342 342 342 340 338 337 338 338 339 339 340 340 339 340 341 341 341 342 342 343 343 343 344 344 344 345 347 347 345 343 341 339 338 339 338 336
326 326 325 324 325 327 329 330 330 330 331 334 337 337 336 336 335 333 332 334 335 337 338 338 337 337 337 338 338 339 340 339 338 338 337 337 339 341 342 343 343 342 340 337 338 340 341 343 344 344 344 342 338 336 335 336 337 338 339 339 339 339 340 341 341 341 342 341 341 342 342 343 344 344 344 345 347 346 345 344 342 341 342 341 341
326 326 324 324 326 328 329 329 331 333 333 333 334 334 334 335 335 333 334 335 336 337 338 339 338 338 337 337 338 340 340 340 339 339 338 337 337 340 342 342 341 341 339 336 335 337 342 344 344 345 344 342 338 334 333 335 337 338 339 338 338 339 341 342 341 340 341 341 342 341 341 342 343 344 344 343 344 344 345 345 344 344 344 344 344
327 327 325 324 327 328 327 329 332 333 332 331 331 331 332 333 334 334 334 337 337 337 339 340 339 337 337 338 339 340 340 340 339 338 337 337 338 340 341 342 340 338 337 336 335 337 342 344 344 344 343 340 338 333 331 335 337 337 338 337 337 339 342 342 340 340 341 342 342 341 340 342 343 343 343 343 343 342 342 343 343 344 344 345 345
328 328 326 324 326 328 327 327 329 329 328 328 328 329 331 332 333 333 335 336 337 337 338 340 340 337 337 339 340 340 340 339 338 336 336 337 339 340 340 340 339 337 336 335 335 336 340 343 344 343 341 339 335 332 332 336 337 337 337 337 338 341 342 341 340 341 342 342 341 340 339 341 343 342 342 342 342 342 341 341 341 341 342 342 342
328 328 326 323 325 328 327 325 325 325 325 326 327 328 331 333 334 334 336 337 337 337 338 339 340 338 337 339 339 339 339 338 335 334 336 337 339 340 339 338 337 337 336 335 335 337 340 342 341 340 339 336 333 332 335 338 338 338 339 339 340 342 342 341 339 340 343 342 340 339 339 340 341 342 341 341 341 341 342 341 341 340 340 340 341
327 328 326 323 325 329 327 324 324 324 325 326 328 329 330 333 335 336 337 338 338 337 337 338 339 340 339 339 338 338 338 337 335 335 336 337 338 338 338 337 337 336 334 335 336 339 341 340 338 336 335 333 332 335 338 340 341 342 342 341 341 342 343 343 340 339 340 340 339 339 339 339 340 341 340 339 340 340 340 341 341 340 340 339 339
326 328 327 324 325 328 327 325 324 324 325 326 327 328 328 331 335 337 337 338 338 336 336 337 338 338 339 338 338 338 337 337 337 337 337 337 337 338 338 337 337 335 335 337 340 341 340 338 335 334 333 332 335 337 338 340 342 341 341 342 342 343 343 342 340 339 339 339 339 339 339 339 340 339 339 339 339 339 339 339 339 339 338 338 338
325 326 327 326 326 326 326 326 325 324 325 325 325 327 328 330 333 336 337 338 337 335 335 335 336 338 337 337 337 338 337 337 337 337 337 337 337 337 338 338 339 339 340 341 342 341 338 335 333 333 334 336 339 339 337 338 339 339 341 342 341 341 341 338 337 337 338 339 339 338 338 339 339 337 338 339 339 339 339 338 338 337 337 336 336
324 326 327 326 325 325 326 326 326 324 324 325 324 326 329 331 333 335 338 338 336 335 336 336 335 336 336 336 336 336 337 337 337 337 337 337 337 338 338 339 340 340 340 339 338 337 335 333 333 334 336 338 340 338 337 338 339 338 340 340 336 334 334 333 334 339 340 339 339 338 338 339 340 338 338 339 339 339 339 337 336 336 336 336 336
325 325 327 327 326 326 326 326 326 324 324 324 324 325 327 330 332 333 335 337 337 336 337 337 336 337 337 336 337 337 337 338 338 338 337 337 336 336 335 335 336 336 336 335 334 334 333 333 335 336 337 338 337 337 337 337 338 337 337 336 334 333 332 333 336 340 340 339 339 338 338 338 338 338 337 337 337 336 336 336 337 338 337 337 336
Wind_Speed
15 14 15 15 14 14 14 15 14 12 12 12 11 10 10 11 11 10 10 10 11 11 11 10 11 12 12 13 14 16 16 15 13 12 12 13 13 12 10 9 7 7 8 10 11 11 11 11 11 11 11 11 12 13 13 13 12 12 12 12 12 11 11 11 10 10 10 10 10 10 10 10 10 10 10 10 10 10 9 9 9 9 8 8 8
16 16 16 16 15 15 15 15 14 13 13 13 11 10 10 11 11 11 11 11 11 11 11 11 11 11 11 12 14 16 17 16 13 13 12 12 14 13 11 10 9 9 9 10 11 12 12 12 12 12 12 12 13 13 14 14 13 13 13 13 13 12 12 12 12 11 11 11 11 11 11 11 11 11 11 11 10 10 10 10 9 9 8 8 7
17 17 17 17 17 17 17 17 16 16 16 15 13 11 11 11 11 11 12 11 11 12 11 11 12 11 11 12 13 16 16 15 13 13 12 12 13 13 12 10 10 11 11 10 11 12 12 13 13 13 13 13 14 14 14 15 15 14 14 14 14 14 14 14 13 13 13 13 13 12 12 12 12 12 11 11 11 11 11 10 9 9 8 8 8
18 18 19 19 18 18 18 19 18 18 17 16 15 13 12 12 13 12 12 12 12 12 12 13 13 12 11 12 14 15 15 14 14 13 13 12 12 13 13 11 11 12 12 11 10 11 12 13 13 13 14 14 14 14 15 15 16 16 15 15 15 15 15 15 15 14 14 14 14 14 14 13 12 12 12 12 12 12 11 11 10 9 9 9 9
19 18 19 19 20 20 19 19 19 18 18 17 17 15 13 13 14 14 13 13 13 13 13 14 14 13 11 12 14 14 14 14 15 14 13 13 13 14 13 12 12 13 13 12 11 12 13 13 14 14 14 14 14 14 14 15 15 16 16 16 16 16 16 16 16 15 15 15 15 15 15 14 14 13 12 12 12 12 12 11 11 10 10 11 11
20 19 20 20 21 21 20 19 19 19 19 19 19 17 15 15 15 15 14 14 14 14 15 14 14 13 11 11 13 13 14 14 14 14 13 14 14 14 14 12 12 14 15 13 12 12 14 14 15 15 15 15 15 15 15 15 15 15 15 15 15 16 16 16 16 16 16 16 16 16 15 15 15 14 13 13 12 12 12 12 12 12 12 12 13
20 20 22 23 22 21 20 19 19 20 21 21 21 19 17 17 16 17 16 15 15 15 16 16 15 14 13 13 12 12 14 14 14 15 14 15 15 15 15 14 14 14 15 14 13 13 14 16 16 16 16 16 16 16 16 16 16 16 15 15 15 15 15 15 15 15 16 16 17 16 16 16 15 15 14 14 14 14 14 14 14 13 13 13 13
21 21 23 24 24 23 21 20 21 22 22 22 22 22 21 19 18 19 19 18 16 16 17 17 17 15 14 14 13 13 14 14 15 16 15 15 15 16 16 16 16 16 17 15 14 14 15 16 18 18 18 17 17 17 17 17 17 17 16 15 15 15 15 15 15 14 14 15 16 16 16 16 16 16 15 16 15 15 15 15 15 15 14 14 14
23 23 23 24 26 25 22 22 23 23 24 25 24 24 23 22 20 20 21 21 19 19 19 18 17 17 16 16 15 16 16 16 17 17 16 16 16 16 17 18 18 19 19 18 17 16 16 17 18 19 19 19 19 18 18 18 18 18 17 16 16 16 16 16 16 15 15 15 15 15 16 16 16 16 16 17 17 16 16 16 16 16 16 15 15
25 25 25 25 26 26 24 24 25 25 27 27 26 25 25 24 23 22 22 23 22 21 21 19 19 19 19 19 18 19 19 18 18 18 18 17 17 17 17 19 20 21 21 21 20 19 18 19 18 19 19 19 19 20 20 19 19 18 18 18 17 17 17 18 17 17 17 16 16 16 16 16 16 16 16 17 17 17 17 17 17 17 17 17 17
26 26 26 26 27 26 26 26 27 27 28 28 27 26 26 26 25 24 23 24 23 23 22 22 21 21 22 22 21 21 21 21 21 21 20 19 19 19 20 21 23 23 23 22 21 20 20 21 20 20 19 19 19 20 20 20 20 20 20 19 19 19 19 19 19 18 18 17 17 17 17 17 17 16 16 17 17 17 18 18 18 18 18 18 17
28 27 27 27 27 28 28 29 29 28 28 28 27 26 25 26 26 25 25 25 25 25 24 23 23 23 24 24 23 23 23 23 24 24 22 22 22 22 24 25 25 26 25 24 23 22 22 23 23 23 22 21 21 21 21 21 22 22 21 21 21 20 20 20 19 19 19 18 17 17 18 18 18 17 17 18 18 18 19 19 19 19 19 18 17
29 29 29 29 29 30 30 31 31 29 28 28 27 25 25 25 25 26 26 26 27 27 25 24 25 25 25 25 25 25 24 24 25 26 26 25 25 26 26 27 27 28 28 26 25 25 24 25 25 25 25 24 24 24 24 23 22 22 22 22 22 22 22 21 21 21 20 19 19 18 19 19 19 19 19 19 20 20 20 20 20 20 19 19 18
31 31 31 31 32 32 32 33 32 30 29 28 28 27 27 26 25 26 26 27 28 27 26 26 27 27 26 25 25 25 25 26 26 27 28 29 29 28 28 28 29 30 29 28 27 26 26 26 26 26 26 25 25 25 25 24 24 23 22 23 23 24 24 23 23 23 22 21 21 20 20 20 21 21 21 21 21 21 21 21 21 21 20 19 18
31 31 33 34 32 32 32 33 33 31 30 30 29 28 28 28 27 27 26 27 27 27 27 27 28 27 26 25 25 24 24 26 27 28 29 30 31 31 30 30 30 30 30 30 29 28 28 28 28 27 27 26 26 25 25 25 25 25 25 24 24 24 25 25 25 25 25 24 23 23 22 22 22 22 22 22 22 22 22 22 22 21 20 19 18
31 31 34 35 33 32 32 32 31 30 30 29 29 28 27 28 27 26 26 27 27 27 27 27 29 28 26 26 24 20 21 25 27 28 28 30 31 32 32 31 31 31 32 32 31 30 30 29 29 29 28 28 27 26 26 26 26 27 27 26 26 26 26 26 26 26 26 26 26 25 25 24 24 23 23 23 22 22 22 22 22 21 20 19 18
29 31 34 35 34 31 29 29 27 28 30 28 26 26 26 26 25 25 27 28 28 28 28 28 30 30 29 27 22 19 22 25 25 25 25 27 29 31 33 32 33 33 33 33 33 32 32 32 31 31 30 30 28 26 26 26 26 27 28 28 27 26 27 27 27 28 27 27 27 27 27 26 25 24 24 24 23 23 23 22 21 21 20 20 19
26 27 28 32 32 29 28 27 27 27 28 26 25 26 27 26 25 26 28 29 30 31 31 30 30 31 31 31 27 24 23 21 20 21 20 21 24 27 30 32 32 34 34 34 34 33 33 33 33 33 32 31 29 27 26 25 25 27 28 28 28 27 27 27 28 29 29 29 28 28 28 27 26 25 25 24 24 24 23 22 21 21 21 20 20
23 23 24 26 27 26 26 27 25 23 22 23 24 25 26 27 27 27 28 30 32 34 34 33 33 32 32 32 31 30 26 20 17 17 17 18 20 22 25 29 31 33 35 35 34 34 33 33 33 34 33 33 31 29 27 25 25 26 28 28 28 27 27 27 28 28 29 29 29 29 29 29 28 27 25 25 24 24 24 23 22 21 21 21 21
22 24 25 26 26 24 24 25 25 23 23 25 26 25 25 27 28 28 29 31 34 36 35 35 35 34 33 32 31 31 31 28 24 21 20 22 22 22 23 25 28 31 33 34 35 34 33 32 32 33 34 33 33 32 30 28 26 26 27 27 27 27 27 27 27 27 28 28 28 28 29 29 29 28 27 26 25 25 24 24 23 22 22 21 21
21 24 26 27 26 24 22 23 23 24 25 27 28 28 28 28 28 28 29 31 34 37 37 38 37 36 35 34 32 30 30 31 31 28 25 25 27 27 25 24 26 29 30 31 32 32 31 31 31 32 33 33 33 33 31 30 29 28 27 27 28 28 28 28 28 28 28 28 27 27 27 28 29 28 28 28 27 27 26 26 26 25 24 23 22
17 21 26 26 25 24 24 23 23 25 28 30 31 32 32 32 30 29 30 32 35 38 39 40 38 37 38 37 34 32 31 32 33 33 31 30 31 32 29 26 27 27 27 27 28 27 28 28 29 29 30 31 31 32 32 32 31 31 30 29 29 30 30 30 30 29 29 29 28 27 27 27 28 28 28 29 28 28 28 27 27 28 27 25 23
19 21 23 25 25 26 27 28 28 30 32 34 34 34 34 34 33 33 34 35 37 40 41 41 40 39 41 41 37 34 33 33 33 33 34 34 34 34 31 28 28 28 26 25 25 26 27 28 28 28 28 29 30 31 31 32 32 32 31 31 30 31 31 31 31 31 31 30 30 29 28 28 28 27 28 29 29 29 29 28 28 28 28 28 25
24 22 21 24 27 28 30 31 32 33 36 37 38 38 38 39 38 38 39 39 39 42 44 43 43 42 42 42 40 37 36 36 34 32 33 34 34 34 32 29 31 31 28 26 27 28 28 29 30 30 30 30 30 31 31 32 32 32 32 31 31 31 31 32 32 32 32 32 32 31 29 28 27 28 29 30 31 30 30 30 28 28 28 28 27
21 21 20 22 24 26 29 30 31 32 34 35 36 36 38 41 43 41 43 44 42 42 45 45 44 42 41 41 41 39 37 38 37 34 32 32 32 35 34 32 34 33 30 28 28 28 29 29 29 29 28 28 28 28 28 28 29 28 29 30 31 31 32 32 32 32 33 33 33 32 31 29 28 29 30 30 31 31 31 32 31 29 28 29 28
18 18 19 21 22 25 26 27 28 28 29 30 31 32 34 37 40 39 39 40 39 39 42 42 42 40 39 38 39 37 35 37 39 37 33 32 33 34 34 34 36 36 33 30 28 29 29 28 26 26 27 26 24 23 23 24 24 24 24 26 28 30 31 31 31 32 33 33 34 35 33 30 29 30 30 29 29 30 31 32 33 32 30 29 29
19 19 20 23 24 27 29 31 31 31 30 30 29 30 32 32 32 32 32 32 35 37 36 35 37 37 37 38 37 35 34 36 39 39 37 35 35 34 34 35 35 35 35 33 31 32 30 27 25 25 25 24 22 21 20 21 21 21 21 23 25 27 28 29 30 31 32 34 36 34 30 27 28 29 28 28 29 30 31 31 33 34 32 31 30
23 23 24 27 28 30 33 34 33 34 34 32 31 31 32 31 29 31 31 30 34 35 31 32 34 34 36 37 37 36 36 37 39 42 42 38 36 36 36 37 36 34 34 33 34 34 30 27 26 24 23 22 21 19 18 17 17 17 17 19 21 22 24 26 28 29 31 33 34 32 30 29 30 29 29 29 30 30 31 32 33 33 33 32 31
24 25 27 29 31 32 34 33 31 33 34 35 35 35 35 34 33 34 33 31 32 33 30 31 32 32 33 35 37 38 39 39 39 43 45 41 39 38 38 40 40 37 34 32 35 34 28 26 26 22 20 19 18 17 16 16 15 14 14 16 18 19 20 22 25 28 30 32 33 33 33 33 32 30 30 30 30 29 30 32 32 33 33 33 32
23 25 27 29 32 33 34 32 31 32 34 35 36 36 36 36 35 36 34 31 32 33 32 33 33 31 31 33 35 38 40 41 41 43 46 45 43 41 40 41 42 42 39 35 35 34 29 26 25 22 19 18 17 17 16 15 14 14 15 16 17 18 19 20 23 26 29 31 32 32 32 32 32 31 30 30 31 30 29 29 30 30 31 32 32
25 26 27 28 30 30 31 30 31 32 34 36 36 36 36 36 35 35 36 36 36 37 37 38 36 33 32 32 33 35 37 42 44 43 44 45 45 43 43 43 43 44 43 38 36 36 32 27 25 23 20 19 18 17 17 17 16 16 17 17 18 19 19 20 22 25 28 30 31 31 31 32 32 32 31 30 31 31 30 30 29 28 28 30 32
24 26 27 28 28 29 30 30 31 33 35 36 36 37 37 36 35 34 36 39 41 41 41 41 38 35 34 33 32 32 33 39 44 44 43 45 46 45 44 45 45 45 43 40 39 38 34 30 27 25 23 22 21 20 20 20 18 18 18 19 19 19 20 21 22 24 26 29 31 31 32 32 32 32 32 32 32 32 32 31 30 29 28 29 31
23 23 24 24 25 26 27 29 32 34 36 36 36 36 36 37 37 36 37 41 45 44 40 39 38 36 35 35 34 33 32 35 40 40 41 44 47 46 45 46 47 46 44 42 40 39 36 32 30 28 27 27 26 23 22 21 19 18 19 19 19 19 20 21 22 23 24 26 28 30 31 32 32 33 34 34 34 34 33 32 32 31 30 30 31
19 19 19 20 21 22 23 25 27 30 33 35 35 36 36 37 38 38 39 42 45 44 42 40 36 33 33 35 35 35 35 37 40 39 39 43 46 45 45 46 47 47 45 42 40 39 38 35 32 31 30 29 29 26 24 22 20 18 19 18 18 18 19 20 21 22 23 24 26 28 30 31 32 33 35 35 35 35 34 34 33 32 31 31 31
17 17 18 20 21 21 22 23 24 25 28 29 29 31 33 35 37 37 39 40 39 38 39 39 34 31 32 34 35 36 38 41 44 44 42 43 45 44 44 45 46 46 44 42 40 38 38 36 34 33 31 30 29 28 26 25 23 22 21 20 19 19 19 19 20 21 22 23 25 27 29 30 31 32 33 34 34 33 34 34 33 32 32 32 32
17 18 20 21 21 22 22 23 23 23 25 25 25 25 27 30 34 36 36 36 35 34 36 37 36 35 36 38 39 38 39 41 44 45 45 45 44 43 44 45 46 45 44 43 41 39 37 37 36 33 32 31 31 29 28 27 26 25 24 22 21 21 20 19 19 20 21 22 23 25 26 27 28 28 29 30 30 31 32 32 31 30 30 31 31
19 21 23 24 25 25 24 22 22 22 24 25 24 23 24 26 29 33 34 34 35 36 38 38 38 38 39 41 43 44 42 43 44 45 47 46 44 43 44 45 46 45 44 43 42 40 38 39 37 33 32 32 31 30 29 28 28 27 26 24 22 21 20 19 20 19 20 20 21 22 22 22 23 24 24 25 27 28 29 29 28 27 28 28 29
20 23 26 27 28 28 27 24 22 21 19 21 21 21 22 24 27 30 32 34 36 38 40 40 39 39 40 41 44 46 47 47 46 46 48 48 46 45 46 46 45 45 45 43 41 40 39 39 37 34 32 32 31 29 28 28 29 30 28 26 23 21 21 20 20 20 19 19 19 19 20 20 21 21 22 23 24 25 26 26 26 26 25 25 26
20 23 26 28 29 28 27 24 22 20 16 16 19 21 23 26 28 29 30 32 35 38 41 43 41 40 40 42 44 46 49 49 48 46 46 48 48 48 47 47 44 43 43 41 38 38 38 37 36 33 32 32 31 30 28 28 30 31 30 27 24 22 21 21 20 19 18 18 18 19 20 20 19 19 20 22 23 23 24 25 25 24 24 23 24
20 22 25 28 29 28 27 23 20 19 17 16 18 21 24 26 26 25 26 29 31 34 38 41 42 42 41 42 44 46 48 49 48 47 45 45 47 49 49 48 45 42 40 38 36 36 35 35 34 34 32 32 31 30 29 28 30 31 28 25 23 22 21 20 20 18 18 18 18 19 20 21 20 18 18 21 23 23 23 23 23 22 22 22 23
20 22 24 26 27 27 26 22 18 16 16 17 15 17 21 24 23 22 24 27 27 28 32 35 39 41 40 40 42 44 46 48 48 47 46 45 45 47 48 47 45 42 39 37 36 36 36 35 35 34 33 32 32 31 30 30 30 29 25 23 23 23 21 20 19 19 18 18 19 20 21 22 21 19 17 16 19 22 22 21 21 21 21 22 23
19 21 22 23 25 26 26 23 19 15 14 15 14 15 19 22 23 23 24 25 25 26 28 31 34 37 37 38 39 40 42 45 46 46 46 45 43 42 44 44 43 41 40 39 37 36 36 36 36 34 33 34 32 30 31 31 29 27 25 24 23 22 21 21 19 18 17 17 18 20 21 22 21 20 17 14 14 18 19 19 19 20 21 22 23
18 19 20 21 23 25 25 22 18 14 12 13 15 17 20 18 17 21 22 22 24 24 24 27 31 34 34 34 36 37 38 41 44 45 44 43 40 39 41 41 40 41 41 40 39 37 35 36 35 33 33 34 31 28 29 30 28 26 24 23 23 22 21 21 19 16 15 15 17 18 19 19 19 19 18 16 15 16 17 18 18 19 20 20 21
17 18 19 20 21 23 24 22 18 16 14 16 18 19 21 18 16 19 21 21 21 22 21 22 27 30 30 30 32 36 38 39 42 43 42 40 39 39 39 39 39 39 39 39 39 37 36 35 34 33 34 32 28 27 28 28 26 24 22 23 24 22 20 19 17 15 13 12 14 16 16 16 16 16 16 16 17 18 19 19 17 17 18 18 17
17 18 19 19 20 22 23 22 21 21 20 20 21 20 20 20 19 20 19 18 19 20 18 17 23 25 25 27 32 34 35 37 37 38 38 38 39 39 39 37 36 36 36 38 38 38 37 36 35 34 31 27 26 27 25 23 22 22 22 23 24 22 19 17 14 13 13 12 12 14 14 13 14 15 14 15 17 18 19 19 19 19 19 18 17
17 18 19 20 20 21 22 23 23 24 24 23 22 21 20 19 18 18 16 16 18 18 15 13 19 23 23 25 30 32 32 34 34 33 35 38 40 40 38 36 35 36 38 38 38 38 36 33 32 30 26 24 26 24 21 20 22 23 22 22 21 19 18 15 12 12 12 11 10 11 12 11 12 14 14 14 16 16 16 17 18 19 20 19 19
17 16 18 20 20 20 21 23 23 24 24 24 23 22 23 21 16 14 13 14 14 14 11 10 14 20 21 21 25 27 28 30 31 32 34 36 36 36 37 36 37 38 38 37 36 35 31 27 26 25 24 24 23 19 17 18 20 20 20 18 17 17 15 13 12 12 10 8 8 10 10 10 11 12 12 12 14 14 14 15 16 17 19 19 19
17 16 15 18 20 21 22 23 22 23 24 26 26 25 26 25 17 12 12 10 9 9 7 6 9 13 15 16 20 23 24 25 26 29 31 31 31 33 35 37 38 37 36 34 32 29 26 25 24 24 23 22 20 18 15 14 15 17 19 17 14 13 13 13 13 13 10 8 9 9 9 9 9 9 9 10 12 11 11 13 13 14 15 16 17
18 16 13 15 19 22 24 25 23 23 24 26 28 26 26 26 19 11 8 4 1 3 2 4 8 10 10 11 15 18 19 20 21 23 25 25 26 28 30 31 33 34 33 31 28 25 24 24 23 21 20 19 18 18 16 15 15 17 17 15 12 10 12 12 12 11 10 9 7 7 9 9 8 8 9 10 9 8 9 10 11 11 12 13 14
18 17 13 13 15 20 25 26 25 23 22 25 27 26 26 25 17 9 4 3 3 2 3 7 11 13 13 12 12 14 16 17 16 16 17 17 18 20 22 24 26 27 27 26 25 24 24 23 22 20 20 18 18 18 17 15 15 15 14 12 11 10 10 10 9 9 9 8 7 7 9 9 9 10 11 10 8 8 8 8 9 9 9 10 10
17 16 14 13 15 19 23 25 25 23 21 23 25 25 24 24 21 17 14 12 9 7 7 9 13 18 17 14 14 15 14 14 14 14 13 12 13 14 15 17 19 20 21 21 22 23 23 22 22 21 20 19 18 17 17 16 16 15 14 12 11 12 11 9 9 9 8 8 8 8 8 8 9 10 11 9 8 8 8 9 8 7 5 5 5
Wind_Direction
237 236 236 236 232 229 229 226 223 220 221 225 227 227 226 230 232 228 227 230 233 232 232 232 226 219 218 220 221 221 217 213 220 225 218 217 215 202 205 223 229 237 229 220 224 226 226 223 220 217 213 213 213 213 213 213 213 215 218 220 223 226 229 230 229 231 232 233 234 236 244 248 251 252 251 250 250 252 252 251 252 253 252 253 256
240 242 240 242 242 238 239 238 235 233 236 237 233 232 230 230 232 231 229 228 231 231 231 231 226 221 220 224 226 229 227 221 223 231 225 215 215 208 201 216 229 238 235 225 225 227 230 231 231 229 226 222 221 220 220 220 221 222 225 225 227 230 233 236 236 237 239 241 242 244 248 252 256 257 260 261 261 261 259 255 252 251 252 252 255
240 244 245 244 246 244 244 246 245 245 246 244 240 237 235 236 234 233 232 229 229 229 229 225 220 222 225 229 230 232 232 227 228 232 228 214 213 214 205 207 224 233 234 227 226 229 231 234 235 235 234 232 230 229 227 225 226 228 231 232 233 234 237 240 242 244 245 247 250 252 252 255 260 262 266 268 269 268 264 260 256 253 254 254 258
241 244 247 248 248 246 246 248 250 252 250 244 242 238 235 239 236 233 231 229 228 224 225 224 220 222 227 232 232 232 232 231 231 230 227 218 211 214 207 203 215 225 229 227 227 232 233 234 235 237 237 237 236 236 235 232 231 232 234 237 239 240 241 243 245 248 249 251 253 255 256 257 261 264 267 270 271 271 267 264 262 260 261 263 267
243 245 248 251 250 246 245 249 255 258 255 246 244 242 238 240 239 236 234 234 235 228 225 225 224 225 227 232 231 231 235 234 231 227 226 219 209 208 208 204 209 220 227 228 230 233 236 236 236 238 239 240 238 239 241 239 238 237 237 239 243 245 246 247 248 250 251 253 254 256 258 260 262 264 266 268 270 271 270 268 269 269 271 272 275
245 247 249 251 249 245 245 250 256 260 259 252 248 248 246 244 244 242 240 240 241 238 234 232 232 232 229 231 231 231 236 237 230 224 222 217 211 210 212 208 206 218 226 229 233 235 238 238 238 239 239 241 240 241 243 242 243 242 241 242 245 247 248 249 249 249 250 252 254 255 258 260 262 264 265 266 267 269 271 271 272 273 274 276 277
248 249 250 252 251 249 249 251 254 255 256 254 252 252 251 249 249 249 248 247 243 242 241 239 239 239 232 227 229 231 235 234 225 220 219 216 217 217 216 211 207 214 223 229 236 238 240 240 239 240 240 242 242 243 244 244 245 245 245 245 246 248 249 249 247 247 248 249 250 252 254 257 260 264 266 267 268 269 270 271 272 272 273 275 276
249 252 252 251 251 249 250 251 248 248 250 251 251 251 251 253 255 253 251 252 248 244 244 243 243 243 237 228 227 230 231 228 222 221 218 216 221 222 219 217 212 214 222 231 237 240 242 242 240 239 239 242 243 243 243 244 245 246 247 247 247 248 249 250 249 248 248 248 248 249 250 252 256 261 265 268 269 270 269 270 270 271 273 275 277
247 251 253 250 248 243 242 245 242 242 245 247 248 249 251 255 258 256 253 255 254 250 249 250 249 248 244 236 233 232 230 227 225 223 220 219 224 225 224 224 220 220 224 230 234 238 242 241 241 240 241 244 246 246 244 242 242 244 247 248 248 249 249 251 252 252 252 252 250 249 249 250 253 258 262 265 268 269 269 268 269 271 273 275 278
248 248 253 252 250 242 238 241 241 240 242 245 247 248 252 257 260 257 255 257 257 255 254 257 258 256 252 247 242 235 230 228 228 226 223 224 227 229 231 231 230 229 230 231 232 236 239 239 240 241 244 247 248 248 246 245 243 243 246 248 249 250 251 252 252 254 255 255 254 252 252 251 253 256 259 261 263 265 266 267 269 271 273 275 278
246 248 254 256 253 247 241 241 241 241 242 245 246 248 252 257 260 258 256 257 258 258 258 260 262 258 255 254 249 242 234 228 228 228 225 224 227 230 231 233 235 238 238 237 235 236 237 236 238 242 245 247 248 248 248 248 248 247 247 249 250 251 252 253 253 254 255 256 256 255 255 254 255 256 257 258 259 261 263 266 270 272 275 276 278
244 247 255 259 257 254 250 247 245 243 242 244 246 249 253 257 261 261 260 258 258 260 260 261 262 259 256 254 251 245 239 233 232 231 226 225 227 229 230 231 234 238 240 240 239 239 237 237 241 246 248 248 251 252 252 253 252 251 251 251 252 252 254 255 255 255 255 257 257 257 257 255 255 256 257 258 259 261 262 265 269 272 275 277 278
250 253 255 259 260 258 255 252 249 247 247 249 252 256 259 261 264 263 261 260 260 261 261 261 261 259 256 254 251 246 242 240 238 234 229 228 230 230 231 232 233 236 239 240 240 241 241 241 244 247 249 250 252 255 255 255 254 253 253 254 254 254 255 256 256 256 256 257 258 259 258 257 256 257 258 260 261 262 263 265 268 272 275 277 278
253 257 257 258 258 257 257 254 251 252 255 257 258 259 262 263 263 261 258 258 259 260 259 258 257 258 258 257 255 249 244 243 241 236 230 229 232 234 234 233 233 234 238 239 239 241 244 246 247 249 251 252 253 254 254 254 254 254 254 255 256 255 255 256 256 256 256 257 258 259 260 260 259 259 260 261 262 263 264 266 268 270 273 275 276
247 253 256 256 256 257 259 257 252 251 255 258 259 258 259 262 263 261 258 257 258 257 255 254 254 256 256 255 255 253 249 245 243 240 235 233 233 235 236 236 236 234 235 237 238 240 243 246 249 251 253 254 255 255 254 253 254 255 255 257 257 256 256 256 256 255 256 256 257 258 259 260 261 260 261 261 262 263 264 266 268 269 271 272 272
245 253 257 256 254 255 256 254 250 250 252 255 257 256 258 260 262 262 259 256 256 255 253 253 253 252 249 247 249 253 252 248 246 244 242 240 238 238 239 239 238 236 235 235 237 240 243 246 249 252 254 255 256 258 257 255 254 255 255 255 256 256 256 256 257 256 257 257 258 258 259 259 260 260 260 260 261 262 264 266 268 268 269 269 270
251 253 255 254 252 249 247 246 248 251 251 252 253 256 259 260 260 262 262 260 259 258 256 254 253 250 246 243 241 242 248 253 253 251 249 247 245 245 244 243 241 238 237 238 240 241 244 246 249 251 253 254 255 257 257 256 255 255 254 253 253 252 253 254 256 256 257 257 258 259 259 258 258 258 259 260 261 262 264 266 267 268 268 269 269
249 246 247 250 247 244 242 243 247 248 246 246 248 252 256 257 258 261 264 265 263 259 258 255 252 250 247 246 245 244 249 257 258 256 257 255 254 252 248 246 244 241 239 239 242 243 244 245 247 249 252 253 254 254 255 255 254 254 253 251 250 249 249 250 252 254 256 257 258 259 260 258 257 257 258 258 259 261 262 263 265 266 267 269 270
243 241 244 245 242 242 241 238 239 240 240 243 246 248 253 255 259 261 264 266 262 258 258 254 249 248 247 248 247 245 245 250 254 259 264 262 260 259 254 249 246 243 240 239 241 243 243 244 245 247 250 252 253 253 254 254 254 254 252 251 250 247 247 247 249 251 254 256 257 258 259 257 257 257 257 257 258 258 259 260 261 263 265 267 268
242 243 244 243 239 238 237 234 237 242 243 244 244 247 253 257 261 263 263 263 262 260 259 255 250 249 248 247 246 243 241 242 245 254 262 262 261 263 260 254 248 243 240 240 241 242 243 244 246 248 249 250 251 252 253 253 254 254 253 253 252 251 249 248 248 249 251 253 255 257 257 256 257 257 257 256 256 256 257 258 259 260 262 265 267
233 235 235 237 236 236 236 237 243 250 252 253 253 256 260 259 259 262 263 263 264 263 258 254 254 254 252 248 244 243 243 243 242 246 252 258 260 260 261 259 256 250 244 241 241 240 241 242 244 247 249 249 249 251 251 251 253 253 252 253 254 255 255 253 251 249 249 251 253 255 257 257 258 258 259 257 256 256 256 257 258 259 260 262 265
219 221 221 224 230 238 241 243 248 254 258 261 262 263 263 260 259 262 265 266 266 264 259 253 252 255 257 255 248 242 242 243 242 241 244 249 256 259 259 257 258 258 252 247 244 242 242 242 244 246 248 250 249 250 250 250 252 254 255 257 258 258 258 256 255 253 252 252 253 255 257 258 259 260 261 260 257 257 257 257 258 258 258 259 261
229 224 221 222 231 242 248 251 255 257 259 260 260 262 262 261 261 261 265 267 266 265 263 259 256 256 259 259 254 247 244 246 245 243 243 245 251 257 258 255 256 259 256 250 249 250 250 247 246 248 251 252 250 250 251 252 254 256 258 260 260 260 260 259 257 256 255 255 255 255 257 259 261 262 263 261 259 259 259 258 258 258 257 256 256
252 248 241 237 242 251 255 256 257 260 264 265 265 265 264 263 261 261 262 261 261 262 262 262 260 260 261 261 259 253 247 248 250 249 248 249 251 257 260 258 257 259 259 257 255 254 253 250 248 251 252 252 251 250 251 253 255 256 258 258 259 259 260 260 259 258 257 257 256 256 256 258 261 264 265 263 260 260 260 259 258 259 257 254 254
270 268 261 254 254 258 259 257 258 262 265 267 268 267 266 263 259 261 263 258 257 261 261 260 259 260 262 262 260 256 249 247 249 249 250 252 253 256 260 261 260 262 264 263 259 256 253 250 249 250 250 251 251 250 251 253 256 258 259 260 259 258 258 259 258 257 257 256 255 253 252 253 260 265 265 262 259 259 259 258 258 258 256 252 252
270 269 268 266 265 265 265 263 264 266 265 265 267 269 271 265 257 260 265 261 259 259 258 259 259 259 261 260 259 258 253 248 247 247 246 247 250 254 258 260 260 262 263 261 259 256 253 250 249 248 249 249 249 249 251 253 257 260 261 262 262 260 258 256 256 256 255 254 252 251 250 252 258 263 262 260 259 259 258 257 257 257 255 251 249
266 264 266 268 269 272 273 273 272 270 268 267 268 271 274 270 262 260 261 261 261 258 255 258 260 260 260 260 260 258 254 249 248 246 242 242 246 252 256 255 254 257 258 257 255 255 254 254 252 249 248 248 247 249 253 256 259 261 260 261 261 260 258 256 255 255 254 253 252 252 252 253 258 262 263 263 262 262 261 260 258 257 255 252 249
276 274 272 272 272 273 275 277 277 274 272 272 272 272 273 273 271 264 258 259 260 258 256 259 261 261 261 262 260 258 255 252 250 245 240 240 243 248 253 254 251 250 252 255 254 253 255 258 256 251 248 248 248 251 256 258 259 260 259 259 259 260 259 256 255 254 254 254 253 253 252 250 252 257 261 265 265 263 262 262 260 257 255 252 250
280 280 279 278 275 272 272 274 275 275 274 272 270 269 268 267 268 264 258 259 261 260 258 259 260 262 263 262 260 259 256 252 248 244 240 240 242 246 250 252 251 248 246 250 254 256 258 261 262 259 255 255 255 256 257 258 259 262 263 262 261 263 262 259 256 253 253 254 254 254 253 251 251 254 257 261 263 261 258 259 259 257 254 251 249
279 279 279 278 277 274 273 272 272 271 271 270 267 264 263 262 262 260 257 260 266 266 264 261 259 259 261 260 259 260 256 251 247 243 240 240 242 244 249 252 252 251 248 247 254 260 263 265 266 264 264 264 263 261 260 262 264 267 268 267 266 267 265 263 259 256 255 255 256 256 256 256 257 256 255 256 257 257 255 254 254 255 254 251 248
285 285 282 282 282 281 279 276 272 269 267 268 267 263 260 259 260 260 257 261 267 269 267 264 257 254 255 255 256 257 253 248 246 244 241 239 240 242 247 251 253 255 254 250 253 259 264 267 266 264 265 268 267 266 265 265 266 266 267 269 270 270 268 266 264 261 259 258 258 258 258 260 260 256 254 255 255 254 254 252 249 250 252 250 248
292 291 290 289 288 288 286 281 275 271 268 266 266 264 262 259 261 262 258 259 264 267 267 262 254 249 250 251 252 253 246 242 246 249 246 239 237 240 245 250 254 255 254 252 252 257 262 267 267 265 264 267 270 270 268 266 266 268 268 268 268 268 268 268 267 265 262 261 261 260 259 259 258 255 255 257 256 253 252 250 247 245 247 248 247
299 298 297 296 295 293 290 284 277 272 268 265 266 266 263 259 259 260 260 260 262 265 264 257 247 243 248 249 248 248 243 241 247 251 244 235 235 239 243 248 252 252 250 251 253 257 262 263 263 263 262 265 269 271 271 267 265 267 270 268 266 266 268 270 268 265 263 263 262 261 260 259 258 258 259 260 258 253 249 248 245 243 244 245 246
308 308 308 307 305 301 298 292 283 273 267 266 267 266 262 259 259 260 260 260 260 260 258 255 246 239 243 247 246 245 241 241 245 246 238 232 234 239 242 246 250 249 249 250 252 256 260 259 258 259 260 264 268 270 273 272 268 268 268 265 263 264 267 268 267 265 263 263 263 262 262 262 262 263 262 261 258 253 247 244 243 241 243 244 244
319 319 318 317 315 311 305 297 287 276 270 269 269 265 260 258 259 259 259 257 256 254 254 255 251 246 247 248 246 244 241 240 243 242 238 235 236 239 242 245 247 248 248 248 249 254 258 257 256 256 258 263 268 271 274 274 271 268 265 262 262 263 263 263 264 265 264 263 263 263 264 264 263 262 260 258 256 251 245 242 242 242 244 245 245
331 329 328 328 326 320 312 302 292 283 275 271 270 266 260 257 257 257 256 255 254 253 253 255 256 254 252 250 248 247 244 244 244 241 237 234 235 238 241 244 245 246 247 246 247 252 255 255 255 254 254 259 266 270 273 273 270 267 264 261 262 261 260 258 258 260 260 260 261 260 260 261 259 258 257 255 253 248 242 240 242 243 244 246 246
337 335 336 335 331 326 319 311 304 293 280 270 265 263 261 259 257 256 256 255 253 252 251 251 252 253 253 252 250 249 248 247 245 241 236 232 233 236 240 242 243 244 246 246 248 252 253 255 256 253 251 257 264 267 270 271 269 265 263 261 261 261 259 256 256 256 256 257 260 260 259 259 259 257 254 252 250 245 240 239 241 243 245 246 248
339 338 340 339 336 330 325 318 312 308 292 270 260 258 260 262 261 261 259 258 257 255 253 251 250 250 252 252 250 248 248 247 244 241 237 233 232 234 237 240 241 242 243 244 248 251 251 254 254 249 247 254 261 264 267 271 269 265 263 260 257 257 258 259 260 259 257 257 259 259 259 260 262 260 254 250 246 241 238 239 241 244 246 247 246
341 341 341 340 338 335 330 322 314 314 306 277 263 261 264 266 267 267 265 263 262 259 258 256 252 251 251 250 247 245 245 245 243 240 237 233 231 233 237 238 239 241 241 242 246 248 249 250 248 244 246 253 260 264 267 269 267 263 261 258 255 257 262 264 264 260 257 258 259 258 257 258 262 262 256 249 242 238 237 239 242 243 245 246 243
343 343 341 339 339 339 337 331 319 311 305 291 276 270 272 274 270 269 270 269 267 263 260 257 253 251 249 247 244 241 240 242 242 239 237 235 233 233 235 236 238 241 240 240 243 245 248 249 244 242 249 255 259 264 266 264 261 259 258 258 261 264 266 265 263 259 256 257 258 256 254 253 256 260 261 252 240 235 236 238 239 242 244 244 242
348 343 339 340 342 343 342 338 328 314 304 297 285 271 272 271 266 270 278 276 271 269 266 259 251 248 247 244 241 239 236 236 238 239 237 237 235 232 231 234 239 240 237 236 240 244 247 248 244 243 248 252 257 264 265 262 260 258 257 257 262 266 266 264 261 259 258 258 257 255 252 251 252 254 262 259 240 233 236 238 238 241 243 242 241
351 344 341 343 347 348 348 344 336 325 313 308 300 282 277 273 266 271 285 283 275 273 271 263 251 244 243 242 240 237 234 232 234 235 233 233 234 233 234 237 239 238 236 235 239 243 247 246 243 242 244 249 257 265 266 263 261 259 256 255 260 266 267 265 262 257 257 259 259 257 253 250 249 248 252 255 241 236 241 240 237 240 242 241 242
348 347 346 349 352 353 354 350 342 338 332 325 317 303 297 295 277 272 284 289 282 278 274 262 250 243 242 240 236 231 228 227 229 229 228 229 232 235 237 239 239 239 238 236 237 241 244 243 239 239 243 250 258 265 265 263 260 257 255 255 260 264 262 263 265 262 258 258 258 260 256 250 247 244 243 245 245 245 248 244 240 241 241 242 243
349 352 352 353 357 358 358 354 351 355 349 333 327 316 306 306 295 281 288 294 289 286 281 262 248 243 239 234 230 226 223 222 223 224 225 227 230 233 234 235 235 235 236 235 236 237 240 240 238 238 243 251 260 265 264 263 259 255 252 254 258 258 254 258 266 266 265 263 258 258 256 247 241 238 237 242 246 248 249 247 243 242 243 244 242
346 350 354 354 357 359 359 358 356 356 350 337 333 327 314 307 298 290 294 298 294 295 292 264 244 237 230 224 224 224 221 219 220 222 223 226 228 230 229 228 229 232 234 235 235 236 240 242 241 240 245 255 262 263 263 263 257 250 250 254 254 250 249 256 264 262 260 258 253 254 253 243 239 239 240 242 243 242 245 246 243 243 245 247 246
344 348 354 354 355 358 358 358 357 356 352 347 341 336 329 318 301 292 299 301 295 297 297 269 240 227 219 216 219 219 217 216 218 221 223 225 225 225 225 225 227 231 232 231 233 236 238 237 235 239 248 257 259 259 261 259 253 250 252 253 248 245 248 254 258 258 257 251 244 247 248 243 240 240 239 238 236 235 238 241 242 243 245 248 249
343 346 353 354 356 358 356 356 358 0 1 357 351 344 339 332 311 296 305 308 303 302 295 267 234 218 211 212 216 215 214 215 218 221 222 221 221 222 225 227 227 225 225 227 231 230 226 223 229 240 250 253 251 250 251 249 245 245 245 241 239 242 243 242 245 251 254 250 240 240 245 245 240 236 232 228 228 228 230 234 238 241 243 245 247
350 349 352 358 2 2 357 354 356 3 7 4 359 355 351 344 331 313 309 303 304 313 295 241 212 202 201 207 210 207 209 213 217 219 219 219 223 226 228 227 225 221 219 221 220 214 212 221 232 241 245 244 240 236 234 233 231 232 231 227 227 234 232 230 238 241 240 243 244 242 242 240 234 227 219 218 220 221 221 225 229 232 236 239 242
353 350 345 356 5 2 356 356 359 3 9 8 5 6 4 357 347 333 321 296 261 346 329 199 186 173 163 172 186 190 197 204 208 211 212 216 221 221 218 218 217 214 210 207 204 205 214 225 229 230 230 227 225 226 225 224 225 228 228 222 217 221 225 229 236 238 236 239 241 236 232 230 222 210 205 210 215 216 219 224 225 227 231 234 236
353 353 344 342 352 352 349 353 360 4 9 11 10 14 17 14 10 16 44 107 128 82 109 159 172 166 153 152 164 174 183 188 190 193 198 201 201 195 192 194 197 198 200 201 204 209 215 217 215 214 211 209 211 217 218 217 219 223 222 214 209 216 224 229 237 241 239 229 216 216 225 225 213 202 203 206 207 211 217 218 214 214 221 228 231
353 357 355 341 337 340 341 346 355 3 9 14 14 17 23 25 27 45 77 105 114 108 113 131 149 154 153 151 151 155 162 161 156 158 166 174 179 179 181 186 189 195 202 206 208 209 208 207 206 204 201 199 202 208 211 211 214 219 220 214 213 218 222 226 233 238 237 224 208 208 217 213 198 194 199 200 195 197 200 196 190 187 190 203 214